This demonstration page uses our WeatherBlox Daily Observations layout. Learn more.

Left ArrowRight Arrow

39.51506, -84.39828

Hourly Observations for February 25, 2018

Temp ( °F °C ) Dew Point ( °F °C ) Humidity (%) Winds ( mph kmh ) Pressure ( in mb ) Visibility ( mi km ) Precip ( " mm )
12:15 am 00:15 Cloudy 52 11.3 52 10.9 97 97 WNW 12 19 29.80 1009 5 8 0.03 0.76
12:35 am 00:35 Cloudy 52 10.9 51 10.4 97 97 E 9 15 29.74 1007 7 11 0.08 2.03
12:55 am 00:55 Cloudy 52 11 51 10.7 98 98 Calm 29.74 1007 10 16 0.10 2.54
1:15 am 01:15 Cloudy 53 11.6 52 11.3 98 98 SSW 7 11 29.74 1007 10 16 0.00 0.00
1:35 am 01:35 Mostly Cloudy 54 12.3 53 11.8 97 97 SSW 9 15 29.74 1007 10 16 0.00 0.00
1:55 am 01:55 Cloudy 56 13.4 55 12.6 95 95 SSW 13 20 29.68 1005 10 16 0.00 0.00
2:15 am 02:15 Cloudy 57 14.1 55 13 93 93 SW 15 24 29.68 1005 10 16 0.00 0.00
2:35 am 02:35 Cloudy 58 14.5 56 13.3 93 93 SSW 17 28 29.68 1005 10 16 0.00 0.00
2:55 am 02:55 Cloudy 58 14.7 56 13.2 91 91 SSW 14 22 29.65 1004 10 16 0.00 0.00
3:15 am 03:15 Cloudy 59 14.9 56 13.2 90 90 SSW 16 26 29.68 1005 10 16 0.00 0.00
3:35 am 03:35 Cloudy 59 15.1 56 13.3 89 89 SW 15 24 29.68 1005 10 16 0.00 0.00
3:55 am 03:55 Mostly Cloudy 59 15.1 56 13.3 89 89 SW 18 30 29.68 1005 10 16 0.00 0.00
4:15 am 04:15 Cloudy 59 15 56 13.2 89 89 SW 17 28 29.71 1006 10 16 0.00 0.00
4:35 am 04:35 Cloudy 59 14.8 55 13 89 89 WSW 12 19 29.71 1006 10 16 0.00 0.00
4:55 am 04:55 Cloudy 60 15.3 52 11.2 77 77 W 21 33 29.74 1007 10 16 0.00 0.00
5:15 am 05:15 Cloudy 54 12.4 48 8.9 79 79 W 21 33 29.80 1009 10 16 0.00 0.00
5:35 am 05:35 Cloudy 53 11.4 46 7.8 79 79 W 23 37 29.83 1010 10 16 0.00 0.00
5:55 am 05:55 Mostly Cloudy 52 10.9 46 7.5 80 80 W 20 31 29.85 1011 10 16 0.00 0.00
6:15 am 06:15 Cloudy 51 10.3 44 6.9 80 80 W 15 24 29.85 1011 10 16 0.00 0.00
6:35 am 06:35 Cloudy 49 9.6 43 6 78 78 WNW 13 20 29.88 1012 10 16 0.00 0.00
6:55 am 06:55 Partly Cloudy 47 8.3 38 3.6 73 73 WNW 18 30 29.88 1012 10 16 0.00 0.00
7:15 am 07:15 Clear 46 7.7 38 3.1 73 73 W 15 24 29.91 1013 10 16 0.00 0.00
7:35 am 07:35 Sunny 45 7.3 38 3.2 75 75 W 13 20 29.91 1013 10 16 0.00 0.00
7:55 am 07:55 Sunny 45 7.4 38 3.3 75 75 W 10 17 29.94 1014 10 16 0.00 0.00
8:15 am 08:15 Sunny 45 7.4 38 3.3 75 75 W 13 20 29.94 1014 10 16 0.00 0.00
8:35 am 08:35 Sunny 45 7.3 37 3 74 74 W 10 17 29.97 1015 10 16 0.00 0.00
8:55 am 08:55 Sunny 45 7.3 37 2.9 74 74 WSW 12 19 29.97 1015 10 16 0.00 0.00
9:15 am 09:15 Sunny 45 7.3 36 2.4 71 71 WSW 15 24 29.97 1015 10 16 0.00 0.00
9:35 am 09:35 Sunny 45 7.2 35 1.5 67 67 WSW 15 24 30.00 1016 10 16 0.00 0.00
9:55 am 09:55 Sunny 45 7.2 34 1.3 66 66 W 12 19 30.00 1016 10 16 0.00 0.00
10:15 am 10:15 Sunny 45 7.3 35 1.5 67 67 W 12 19 30.00 1016 10 16 0.00 0.00
10:35 am 10:35 Sunny 46 7.5 36 2.3 70 70 W 9 15 30.03 1017 10 16 0.00 0.00
10:55 am 10:55 Sunny 46 7.9 37 2.8 70 70 W 12 19 30.03 1017 10 16 0.00 0.00
11:15 am 11:15 Partly Cloudy 47 8.3 38 3.3 71 71 W 12 19 30.03 1017 10 16 0.00 0.00
11:35 am 11:35 Mostly Cloudy 47 8.4 37 2.8 68 68 WSW 17 28 30.03 1017 10 16 0.00 0.00
11:55 am 11:55 Sunny 47 8.1 35 1.7 64 64 WSW 15 24 30.06 1018 10 16 0.00 0.00
12:15 pm 12:15 Sunny 47 8.2 35 1.5 63 63 WSW 20 31 30.06 1018 10 16 0.00 0.00
12:35 pm 12:35 Sunny 46 7.9 34 0.9 62 62 WSW 12 19 30.06 1018 10 16 0.00 0.00
12:55 pm 12:55 Sunny 47 8.1 34 1.2 62 62 WSW 10 17 30.03 1017 10 16 0.00 0.00
1:15 pm 13:15 Sunny 47 8.5 32 0 55 55 WSW 18 30 30.03 1017 10 16 0.00 0.00
1:35 pm 13:35 Sunny 48 9.1 34 1.1 58 58 W 13 20 30.03 1017 10 16 0.00 0.00
1:55 pm 13:55 Sunny 48 8.9 32 0.2 55 55 WSW 15 24 30.06 1018 10 16 0.00 0.00
2:15 pm 14:15 Sunny 50 9.9 33 0.8 53 53 WSW 15 24 30.03 1017 10 16 0.00 0.00
2:35 pm 14:35 Sunny 50 10.1 29 -1.4 45 45 W 14 22 30.03 1017 10 16 0.00 0.00
2:55 pm 14:55 Sunny 49 9.5 29 -1.5 47 47 WSW 16 26 30.03 1017 10 16 0.00 0.00
3:15 pm 15:15 Sunny 49 9.3 29 -1.4 47 47 SW 15 24 30.03 1017 10 16 0.00 0.00
3:35 pm 15:35 Sunny 51 10.3 31 -0.6 47 47 SW 14 22 30.03 1017 10 16 0.00 0.00
3:55 pm 15:55 Sunny 49 9.5 29 -1.7 46 46 W 12 19 30.06 1018 10 16 0.00 0.00
4:15 pm 16:15 Sunny 49 9.6 31 -0.6 49 49 W 13 20 30.06 1018 10 16 0.00 0.00
4:35 pm 16:35 Sunny 48 9.1 28 -2.3 45 45 W 13 20 30.06 1018 10 16 0.00 0.00
4:55 pm 16:55 Sunny 48 8.9 29 -1.4 49 49 W 10 17 30.06 1018 10 16 0.00 0.00
5:15 pm 17:15 Sunny 48 8.9 30 -1 50 50 W 13 20 30.06 1018 10 16 0.00 0.00
5:35 pm 17:35 Sunny 47 8.6 31 -0.8 52 52 W 9 15 30.06 1018 10 16 0.00 0.00
5:55 pm 17:55 Sunny 47 8.4 31 -0.4 54 54 W 9 15 30.09 1019 10 16 0.00 0.00
6:15 pm 18:15 Sunny 46 7.9 32 0 58 58 WSW 8 13 30.09 1019 10 16 0.00 0.00
6:35 pm 18:35 Clear 45 7.4 32 -0.1 59 59 WSW 8 13 30.09 1019 10 16 0.00 0.00
6:55 pm 18:55 Clear 45 7.1 32 0 61 61 WSW 6 9 30.12 1020 10 16 0.00 0.00
7:15 pm 19:15 Clear 44 6.8 32 0.2 63 63 WSW 6 9 30.12 1020 10 16 0.00 0.00
7:35 pm 19:35 Clear 44 6.8 33 0.3 64 64 WSW 6 9 30.12 1020 10 16 0.00 0.00
7:55 pm 19:55 Clear 43 6.3 33 0.3 66 66 WSW 6 9 30.12 1020 10 16 0.00 0.00
8:15 pm 20:15 Clear 43 6.2 33 0.4 67 67 WSW 5 7 30.15 1021 10 16 0.00 0.00
8:35 pm 20:35 Clear 43 6.2 33 0.3 66 66 W 5 7 30.12 1020 10 16 0.00 0.00
8:55 pm 20:55 Clear 43 6.2 32 0.2 66 66 Calm 30.12 1020 10 16 0.00 0.00
9:15 pm 21:15 Clear 42 5.5 32 0.2 69 69 Calm 30.15 1021 10 16 0.00 0.00
9:35 pm 21:35 Clear 42 5.5 34 1.3 75 75 Calm 30.15 1021 10 16 0.00 0.00
9:55 pm 21:55 Clear 42 5.3 34 0.9 74 74 Calm 30.15 1021 10 16 0.00 0.00
10:15 pm 22:15 Clear 40 4.6 36 2.4 86 86 Calm 30.18 1022 10 16 0.00 0.00
10:35 pm 22:35 Clear 39 3.7 35 1.8 88 88 Calm 30.18 1022 10 16 0.00 0.00
10:55 pm 22:55 Clear 38 3.5 35 1.8 89 89 Calm 30.21 1023 10 16 0.00 0.00
11:10 pm 23:10 Clear 40 4.3 35 1.4 82 82 Calm 30.21 1023 10 16 0.00 0.00
11:35 pm 23:35 Clear 38 3.1 35 1.6 90 90 Calm 30.21 1023 10 16 0.00 0.00
11:55 pm 23:55 Clear 37 2.7 35 1.6 93 93 Calm 30.21 1023 10 16 0.00 0.00

Powered by AerisWeather